Location: Palomar Mountain Lodge
(33.3110°N, 116.8495°W)
Time: 00:38:56
(UTC-07:00)

CZ-3 Stage 3 - Pass Details

Date: 14 June 2018
Orbit: 303 x 27457 km, 30.2° (Epoch: 18 June)

Event Time Altitude Azimuth Distance (km) Brightness Sun altitude
Rises 21:28:55 0° 254° (WSW) 2,354 6.0 -16.2°
Reaches altitude 10° 21:30:11 10° 250° (WSW) 1,753 5.2 -16.4°
Maximum altitude 21:33:30 64° 168° (SSE) 1,022 3.4 -16.9°
Drops below altitude 10° 21:48:11 10° 90° (E) 7,175 7.5 -19.0°
Sets 22:02:16 0° 90° (E) 12,173 8.8 -21.0°
